Time,TemperatureF,DewpointF,PressureIn,WindDirection,WindDirectionDegrees,WindSpeedMPH,WindSpeedGustMPH,Humidity,HourlyPrecipIn,Conditions,Clouds,dailyrainin,SoftwareType,DateUTC
2013-02-18 00:02:00,31.5,17.2,28.35,SSE,150,16.0,20.6,55,0.00,,,-99.99,FreeWX-Wi 1.01,2013-02-18 06:02:00,
2013-02-18 00:07:00,31.5,17.2,28.35,SSE,149,16.0,22.4,55,0.00,,,-99.99,FreeWX-Wi 1.01,2013-02-18 06:07:00,
2013-02-18 00:12:00,31.5,17.2,28.35,SSE,149,16.0,20.6,55,0.00,,,-99.99,FreeWX-Wi 1.01,2013-02-18 06:12:00,
2013-02-18 00:17:00,31.3,17.4,28.35,SSE,150,16.0,23.7,56,0.00,,,-99.99,FreeWX-Wi 1.01,2013-02-18 06:17:00,
2013-02-18 00:22:00,31.1,17.6,28.35,SSE,150,16.0,19.2,57,0.00,,,-99.99,FreeWX-Wi 1.01,2013-02-18 06:22:00,
2013-02-18 00:28:00,30.9,17.4,28.35,SSE,150,15.0,19.7,57,0.00,,,-99.99,FreeWX-Wi 1.01,2013-02-18 06:28:00,
2013-02-18 00:33:00,30.7,17.8,28.35,SSE,150,15.0,17.9,58,0.00,,,-99.99,FreeWX-Wi 1.01,2013-02-18 06:33:00,
2013-02-18 00:38:00,30.9,18.0,28.35,SSE,150,14.0,19.2,58,0.00,,,-99.99,FreeWX-Wi 1.01,2013-02-18 06:38:00,
2013-02-18 00:43:00,30.7,17.8,28.35,SSE,149,14.0,21.9,58,0.00,,,-99.99,FreeWX-Wi 1.01,2013-02-18 06:43:00,
2013-02-18 00:48:00,30.7,17.8,28.32,SSE,149,14.0,20.1,58,0.00,,,-99.99,FreeWX-Wi 1.01,2013-02-18 06:48:00,
2013-02-18 00:53:00,30.7,17.8,28.32,SSE,147,14.0,20.6,58,0.00,,,-99.99,FreeWX-Wi 1.01,2013-02-18 06:53:00,
2013-02-18 00:58:00,30.6,18.0,28.32,SE,146,14.0,21.5,59,0.00,,,-99.99,FreeWX-Wi 1.01,2013-02-18 06:58:00,
2013-02-18 01:03:00,30.6,18.0,28.32,SE,146,14.0,19.7,59,0.00,,,-99.99,FreeWX-Wi 1.01,2013-02-18 07:03:00,
2013-02-18 01:08:00,30.4,18.1,28.32,SE,145,14.0,20.6,60,0.00,,,-99.99,FreeWX-Wi 1.01,2013-02-18 07:08:00,
2013-02-18 01:13:00,30.2,18.0,28.32,SE,146,14.0,17.4,60,0.00,,,-99.99,FreeWX-Wi 1.01,2013-02-18 07:13:00,
2013-02-18 01:18:00,30.2,18.3,28.32,SE,146,14.0,18.8,61,0.00,,,-99.99,FreeWX-Wi 1.01,2013-02-18 07:18:00,
2013-02-18 01:23:00,30.2,18.3,28.32,SSE,147,14.0,17.0,61,0.00,,,-99.99,FreeWX-Wi 1.01,2013-02-18 07:23:00,
2013-02-18 01:28:00,30.2,18.3,28.32,SSE,148,14.0,16.8,61,0.00,,,-99.99,FreeWX-Wi 1.01,2013-02-18 07:28:00,
2013-02-18 01:33:00,30.2,18.9,28.32,SSE,149,13.0,17.0,62,0.00,,,-99.99,FreeWX-Wi 1.01,2013-02-18 07:33:00,
2013-02-18 01:38:00,30.2,18.9,28.32,SSE,150,13.0,15.4,62,0.00,,,-99.99,FreeWX-Wi 1.01,2013-02-18 07:38:00,
2013-02-18 01:44:00,30.0,19.0,28.32,SSE,152,13.0,16.3,63,0.00,,,-99.99,FreeWX-Wi 1.01,2013-02-18 07:44:00,
2013-02-18 01:49:00,30.0,19.0,28.32,SSE,154,13.0,17.4,63,0.00,,,-99.99,FreeWX-Wi 1.01,2013-02-18 07:49:00,
2013-02-18 01:54:00,30.0,19.4,28.32,SSE,155,12.0,15.4,64,0.00,,,-99.99,FreeWX-Wi 1.01,2013-02-18 07:54:00,
2013-02-18 01:59:00,29.8,19.2,28.32,SSE,156,12.0,17.9,64,0.00,,,-99.99,FreeWX-Wi 1.01,2013-02-18 07:59:00,
2013-02-18 02:04:00,29.8,19.2,28.32,SSE,157,12.0,15.0,64,0.00,,,-99.99,FreeWX-Wi 1.01,2013-02-18 08:04:00,
2013-02-18 02:09:00,29.7,19.4,28.32,SSE,158,12.0,13.6,65,0.00,,,-99.99,FreeWX-Wi 1.01,2013-02-18 08:09:00,
2013-02-18 02:14:00,29.7,19.8,28.32,SSE,158,12.0,13.6,66,0.00,,,-99.99,FreeWX-Wi 1.01,2013-02-18 08:14:00,
2013-02-18 02:19:00,29.5,19.6,28.32,SSE,158,12.0,14.5,66,0.00,,,-99.99,FreeWX-Wi 1.01,2013-02-18 08:19:00,
2013-02-18 02:24:00,29.5,19.9,28.32,SSE,158,11.0,12.8,67,0.00,,,-99.99,FreeWX-Wi 1.01,2013-02-18 08:24:00,
2013-02-18 02:29:00,29.3,19.8,28.32,SSE,159,11.0,12.8,67,0.00,,,-99.99,FreeWX-Wi 1.01,2013-02-18 08:29:00,
2013-02-18 02:34:00,29.1,19.9,28.29,SSE,160,10.0,12.8,68,0.00,,,-99.99,FreeWX-Wi 1.01,2013-02-18 08:34:00,
2013-02-18 02:39:00,29.1,19.9,28.29,SSE,162,10.0,11.0,68,0.00,,,-99.99,FreeWX-Wi 1.01,2013-02-18 08:39:00,
2013-02-18 02:44:00,29.1,19.9,28.29,SSE,163,9.0,12.3,68,0.00,,,-99.99,FreeWX-Wi 1.01,2013-02-18 08:44:00,
2013-02-18 02:49:00,29.1,20.3,28.29,SSE,163,9.0,13.2,69,0.00,,,-99.99,FreeWX-Wi 1.01,2013-02-18 08:49:00,
2013-02-18 02:54:00,28.9,20.1,28.29,SSE,165,9.0,11.0,69,0.00,,,-99.99,FreeWX-Wi 1.01,2013-02-18 08:54:00,
2013-02-18 02:59:00,28.9,20.5,28.29,SSE,166,9.0,12.8,70,0.00,,,-99.99,FreeWX-Wi 1.01,2013-02-18 08:59:00,
2013-02-18 03:05:00,28.9,20.5,28.29,SSE,165,9.0,11.0,70,0.00,,,-99.99,FreeWX-Wi 1.01,2013-02-18 09:05:00,
2013-02-18 03:10:00,28.9,20.5,28.29,SSE,163,9.0,11.0,70,0.00,,,-99.99,FreeWX-Wi 1.01,2013-02-18 09:10:00,
2013-02-18 03:15:00,28.8,20.5,28.29,SSE,163,9.0,10.5,71,0.00,,,-99.99,FreeWX-Wi 1.01,2013-02-18 09:15:00,
2013-02-18 03:20:00,28.6,20.5,28.29,SSE,162,8.0,10.5,71,0.00,,,-99.99,FreeWX-Wi 1.01,2013-02-18 09:20:00,
2013-02-18 03:25:00,28.6,20.7,28.29,SSE,159,8.0,9.6,72,0.00,,,-99.99,FreeWX-Wi 1.01,2013-02-18 09:25:00,
2013-02-18 03:30:00,28.6,20.7,28.29,SSE,157,8.0,10.1,72,0.00,,,-99.99,FreeWX-Wi 1.01,2013-02-18 09:30:00,
2013-02-18 03:35:00,28.4,21.2,28.29,SSE,158,8.0,11.0,74,0.00,,,-99.99,FreeWX-Wi 1.01,2013-02-18 09:35:00,
2013-02-18 03:40:00,28.6,21.0,28.29,SSE,157,8.0,10.5,73,0.00,,,-99.99,FreeWX-Wi 1.01,2013-02-18 09:40:00,
2013-02-18 03:45:00,28.4,21.2,28.29,SSE,156,8.0,11.0,74,0.00,,,-99.99,FreeWX-Wi 1.01,2013-02-18 09:45:00,
2013-02-18 03:50:00,28.4,21.2,28.26,SSE,157,8.0,10.1,74,0.00,,,-99.99,FreeWX-Wi 1.01,2013-02-18 09:50:00,
2013-02-18 03:55:00,28.4,21.2,28.26,SSE,157,8.0,12.3,74,0.00,,,-99.99,FreeWX-Wi 1.01,2013-02-18 09:55:00,
2013-02-18 04:00:00,28.2,21.0,28.26,SSE,157,8.0,13.2,74,0.00,,,-99.99,FreeWX-Wi 1.01,2013-02-18 10:00:00,
2013-02-18 04:05:00,28.4,21.2,28.26,SSE,156,8.0,11.9,74,0.00,,,-99.99,FreeWX-Wi 1.01,2013-02-18 10:05:00,
2013-02-18 04:11:00,28.0,20.8,28.26,SSE,156,8.0,8.7,74,0.00,,,-99.99,FreeWX-Wi 1.01,2013-02-18 10:11:00,
2013-02-18 04:16:00,27.9,21.0,28.26,SSE,156,8.0,8.7,75,0.00,,,-99.99,FreeWX-Wi 1.01,2013-02-18 10:16:00,
2013-02-18 04:21:00,27.9,21.4,28.26,SSE,157,8.0,9.6,76,0.00,,,-99.99,FreeWX-Wi 1.01,2013-02-18 10:21:00,
2013-02-18 04:26:00,27.9,21.6,28.26,SSE,158,8.0,10.5,77,0.00,,,-99.99,FreeWX-Wi 1.01,2013-02-18 10:26:00,
2013-02-18 04:31:00,27.7,21.4,28.26,SSE,160,7.0,8.7,77,0.00,,,-99.99,FreeWX-Wi 1.01,2013-02-18 10:31:00,
2013-02-18 04:36:00,27.9,21.6,28.26,SSE,160,7.0,8.7,77,0.00,,,-99.99,FreeWX-Wi 1.01,2013-02-18 10:36:00,
2013-02-18 04:41:00,27.9,21.6,28.26,SSE,161,7.0,8.1,77,0.00,,,-99.99,FreeWX-Wi 1.01,2013-02-18 10:41:00,
2013-02-18 04:46:00,27.7,21.4,28.26,SSE,162,7.0,8.3,77,0.00,,,-99.99,FreeWX-Wi 1.01,2013-02-18 10:46:00,
2013-02-18 04:51:00,27.5,21.2,28.26,SSE,162,7.0,8.1,77,0.00,,,-99.99,FreeWX-Wi 1.01,2013-02-18 10:51:00,
2013-02-18 04:56:00,27.3,21.0,28.26,SSE,161,6.0,8.3,77,0.00,,,-99.99,FreeWX-Wi 1.01,2013-02-18 10:56:00,
2013-02-18 05:02:00,27.3,21.4,28.26,SSE,160,6.0,8.7,78,0.00,,,-99.99,FreeWX-Wi 1.01,2013-02-18 11:02:00,
2013-02-18 05:07:00,27.3,21.4,28.26,SSE,162,6.0,6.3,78,0.00,,,-99.99,FreeWX-Wi 1.01,2013-02-18 11:07:00,
2013-02-18 05:12:00,27.1,21.6,28.26,SSE,163,6.0,7.6,79,0.00,,,-99.99,FreeWX-Wi 1.01,2013-02-18 11:12:00,
2013-02-18 05:22:00,27.3,21.7,28.26,SSE,168,5.0,6.3,79,0.00,,,-99.99,FreeWX-Wi 1.01,2013-02-18 11:22:00,
2013-02-18 05:27:00,27.3,21.7,28.26,South,171,5.0,6.3,79,0.00,,,-99.99,FreeWX-Wi 1.01,2013-02-18 11:27:00,
2013-02-18 05:32:00,27.3,21.7,28.26,South,173,5.0,6.3,79,0.00,,,-99.99,FreeWX-Wi 1.01,2013-02-18 11:32:00,
2013-02-18 05:37:00,27.1,21.6,28.26,South,174,5.0,6.3,79,0.00,,,-99.99,FreeWX-Wi 1.01,2013-02-18 11:37:00,
2013-02-18 05:43:00,26.8,21.2,28.26,South,177,5.0,6.3,79,0.00,,,-99.99,FreeWX-Wi 1.01,2013-02-18 11:43:00,
2013-02-18 05:48:00,26.6,21.0,28.26,South,178,4.0,5.4,79,0.00,,,-99.99,FreeWX-Wi 1.01,2013-02-18 11:48:00,
2013-02-18 05:53:00,26.4,21.0,28.26,South,181,5.0,5.8,80,0.00,,,-99.99,FreeWX-Wi 1.01,2013-02-18 11:53:00,
2013-02-18 05:58:00,26.4,21.4,28.26,South,184,4.0,5.4,81,0.00,,,-99.99,FreeWX-Wi 1.01,2013-02-18 11:58:00,
2013-02-18 06:03:00,26.4,21.4,28.26,South,186,4.0,6.3,81,0.00,,,-99.99,FreeWX-Wi 1.01,2013-02-18 12:03:00,
2013-02-18 06:08:00,26.4,21.7,28.26,South,187,4.0,6.3,82,0.00,,,-99.99,FreeWX-Wi 1.01,2013-02-18 12:08:00,
2013-02-18 06:13:00,26.4,21.7,28.26,South,186,5.0,7.6,82,0.00,,,-99.99,FreeWX-Wi 1.01,2013-02-18 12:13:00,
2013-02-18 06:18:00,26.4,21.7,28.26,South,186,5.0,8.7,82,0.00,,,-99.99,FreeWX-Wi 1.01,2013-02-18 12:18:00,
2013-02-18 06:23:00,26.4,21.9,28.26,South,186,6.0,9.2,83,0.00,,,-99.99,FreeWX-Wi 1.01,2013-02-18 12:23:00,
2013-02-18 06:28:00,26.6,22.1,28.26,South,184,6.0,8.7,83,0.00,,,-99.99,FreeWX-Wi 1.01,2013-02-18 12:28:00,
2013-02-18 06:33:00,26.8,22.1,28.26,South,183,6.0,8.7,82,0.00,,,-99.99,FreeWX-Wi 1.01,2013-02-18 12:33:00,
2013-02-18 06:38:00,26.6,21.9,28.26,South,182,7.0,8.3,82,0.00,,,-99.99,FreeWX-Wi 1.01,2013-02-18 12:38:00,
2013-02-18 06:43:00,26.6,21.9,28.26,South,183,7.0,8.7,82,0.00,,,-99.99,FreeWX-Wi 1.01,2013-02-18 12:43:00,
2013-02-18 06:48:00,26.4,21.4,28.26,South,185,6.0,6.3,81,0.00,,,-99.99,FreeWX-Wi 1.01,2013-02-18 12:48:00,
2013-02-18 06:53:00,26.2,21.2,28.26,South,187,6.0,6.3,81,0.00,,,-99.99,FreeWX-Wi 1.01,2013-02-18 12:53:00,
2013-02-18 06:59:00,26.1,21.4,28.26,South,190,6.0,6.0,82,0.00,,,-99.99,FreeWX-Wi 1.01,2013-02-18 12:59:00,
2013-02-18 07:04:00,26.1,21.4,28.29,South,191,5.0,6.3,82,0.00,,,-99.99,FreeWX-Wi 1.01,2013-02-18 13:04:00,
2013-02-18 07:09:00,25.9,21.4,28.29,SSW,192,5.0,7.2,83,0.00,,,-99.99,FreeWX-Wi 1.01,2013-02-18 13:09:00,
2013-02-18 07:14:00,25.9,21.4,28.29,SSW,194,5.0,7.6,83,0.00,,,-99.99,FreeWX-Wi 1.01,2013-02-18 13:14:00,
2013-02-18 07:19:00,26.1,21.9,28.29,SSW,193,5.0,7.6,84,0.00,,,-99.99,FreeWX-Wi 1.01,2013-02-18 13:19:00,
2013-02-18 07:24:00,26.1,22.1,28.29,SSW,192,5.0,7.6,85,0.00,,,-99.99,FreeWX-Wi 1.01,2013-02-18 13:24:00,
2013-02-18 07:29:00,26.1,22.1,28.29,SSW,192,5.0,6.7,85,0.00,,,-99.99,FreeWX-Wi 1.01,2013-02-18 13:29:00,
2013-02-18 07:34:00,26.1,21.9,28.29,South,191,6.0,6.7,84,0.00,,,-99.99,FreeWX-Wi 1.01,2013-02-18 13:34:00,
2013-02-18 07:39:00,26.2,22.1,28.29,SSW,192,6.0,6.3,84,0.00,,,-99.99,FreeWX-Wi 1.01,2013-02-18 13:39:00,
2013-02-18 07:44:00,26.2,22.1,28.29,SSW,194,5.0,6.3,84,0.00,,,-99.99,FreeWX-Wi 1.01,2013-02-18 13:44:00,
2013-02-18 07:49:00,26.4,22.3,28.29,SSW,197,5.0,6.3,84,0.00,,,-99.99,FreeWX-Wi 1.01,2013-02-18 13:49:00,
2013-02-18 07:54:00,26.6,22.5,28.29,SSW,205,5.0,5.8,84,0.00,,,-99.99,FreeWX-Wi 1.01,2013-02-18 13:54:00,
2013-02-18 07:59:00,27.0,22.8,28.29,SW,214,4.0,6.3,84,0.00,,,-99.99,FreeWX-Wi 1.01,2013-02-18 13:59:00,
2013-02-18 08:05:00,27.1,23.0,28.29,SW,224,4.0,8.3,84,0.00,,,-99.99,FreeWX-Wi 1.01,2013-02-18 14:05:00,
2013-02-18 08:10:00,27.7,23.2,28.29,SW,232,3.0,3.6,83,0.00,,,-99.99,FreeWX-Wi 1.01,2013-02-18 14:10:00,
2013-02-18 08:15:00,28.2,23.2,28.29,WSW,239,2.0,0.0,81,0.00,,,-99.99,FreeWX-Wi 1.01,2013-02-18 14:15:00,
2013-02-18 08:20:00,28.6,23.5,28.26,WSW,248,2.0,2.7,81,0.00,,,-99.99,FreeWX-Wi 1.01,2013-02-18 14:20:00,
2013-02-18 08:25:00,29.1,23.7,28.26,WSW,257,1.0,2.7,80,0.00,,,-99.99,FreeWX-Wi 1.01,2013-02-18 14:25:00,
2013-02-18 08:30:00,29.5,23.7,28.26,West,259,1.0,6.3,79,0.00,,,-99.99,FreeWX-Wi 1.01,2013-02-18 14:30:00,
2013-02-18 08:35:00,29.7,23.7,28.29,West,261,1.0,5.4,78,0.00,,,-99.99,FreeWX-Wi 1.01,2013-02-18 14:35:00,
2013-02-18 08:40:00,30.2,24.3,28.29,West,263,1.0,4.0,78,0.00,,,-99.99,FreeWX-Wi 1.01,2013-02-18 14:40:00,
2013-02-18 08:45:00,30.7,24.4,28.29,West,264,2.0,3.1,77,0.00,,,-99.99,FreeWX-Wi 1.01,2013-02-18 14:45:00,
2013-02-18 08:50:00,31.3,25.0,28.29,West,262,2.0,3.1,77,0.00,,,-99.99,FreeWX-Wi 1.01,2013-02-18 14:50:00,
2013-02-18 08:55:00,31.6,25.0,28.29,WSW,258,2.0,6.3,76,0.00,,,-99.99,FreeWX-Wi 1.01,2013-02-18 14:55:00,
2013-02-18 09:00:00,32.0,25.3,28.26,WSW,258,3.0,8.1,76,0.00,,,-99.99,FreeWX-Wi 1.01,2013-02-18 15:00:00,
2013-02-18 09:05:00,32.0,24.6,28.26,WSW,255,3.0,6.7,74,0.00,,,-99.99,FreeWX-Wi 1.01,2013-02-18 15:05:00,
2013-02-18 09:10:00,32.2,24.8,28.26,WSW,251,4.0,8.1,74,0.00,,,-99.99,FreeWX-Wi 1.01,2013-02-18 15:10:00,
2013-02-18 09:15:00,32.4,25.0,28.29,WSW,248,5.0,8.1,74,0.00,,,-99.99,FreeWX-Wi 1.01,2013-02-18 15:15:00,
2013-02-18 09:21:00,32.4,25.0,28.29,WSW,245,5.0,7.6,74,0.00,,,-99.99,FreeWX-Wi 1.01,2013-02-18 15:21:00,
2013-02-18 09:26:00,32.5,25.5,28.29,WSW,246,5.0,5.4,75,0.00,,,-99.99,FreeWX-Wi 1.01,2013-02-18 15:26:00,
2013-02-18 09:31:00,32.7,25.7,28.29,WSW,247,4.0,5.4,75,0.00,,,-99.99,FreeWX-Wi 1.01,2013-02-18 15:31:00,
2013-02-18 09:36:00,32.9,26.2,28.29,WSW,248,4.0,4.9,76,0.00,,,-99.99,FreeWX-Wi 1.01,2013-02-18 15:36:00,
2013-02-18 09:41:00,33.1,26.4,28.29,WSW,250,3.0,3.6,76,0.00,,,-99.99,FreeWX-Wi 1.01,2013-02-18 15:41:00,
2013-02-18 09:46:00,33.3,26.6,28.29,WSW,253,2.0,3.1,76,0.00,,,-99.99,FreeWX-Wi 1.01,2013-02-18 15:46:00,
2013-02-18 09:51:00,33.3,26.6,28.29,WSW,255,2.0,3.6,76,0.00,,,-99.99,FreeWX-Wi 1.01,2013-02-18 15:51:00,
2013-02-18 09:56:00,33.4,27.0,28.29,WSW,256,2.0,2.7,77,0.00,,,-99.99,FreeWX-Wi 1.01,2013-02-18 15:56:00,
2013-02-18 10:01:00,33.6,27.1,28.29,West,264,1.0,4.9,77,0.00,,,-99.99,FreeWX-Wi 1.01,2013-02-18 16:01:00,
2013-02-18 10:06:00,33.8,27.3,28.29,West,274,2.0,5.8,77,0.00,,,-99.99,FreeWX-Wi 1.01,2013-02-18 16:06:00,
2013-02-18 10:11:00,34.0,27.5,28.29,WNW,284,2.0,5.4,77,0.00,,,-99.99,FreeWX-Wi 1.01,2013-02-18 16:11:00,
2013-02-18 10:17:00,34.0,27.5,28.29,WNW,295,2.0,4.9,77,0.00,,,-99.99,FreeWX-Wi 1.01,2013-02-18 16:17:00,
2013-02-18 10:22:00,34.2,27.7,28.29,NW,304,3.0,4.0,77,0.00,,,-99.99,FreeWX-Wi 1.01,2013-02-18 16:22:00,
2013-02-18 10:27:00,34.3,28.2,28.29,NW,309,3.0,6.3,78,0.00,,,-99.99,FreeWX-Wi 1.01,2013-02-18 16:27:00,
2013-02-18 10:32:00,34.3,27.9,28.29,NW,311,3.0,5.8,77,0.00,,,-99.99,FreeWX-Wi 1.01,2013-02-18 16:32:00,
2013-02-18 10:37:00,34.3,28.2,28.29,NW,309,3.0,5.8,78,0.00,,,-99.99,FreeWX-Wi 1.01,2013-02-18 16:37:00,
2013-02-18 10:42:00,34.2,28.4,28.29,NW,308,3.0,8.1,79,0.00,,,-99.99,FreeWX-Wi 1.01,2013-02-18 16:42:00,
2013-02-18 10:47:00,34.0,29.1,28.29,NW,307,4.0,8.1,82,0.00,,,-99.99,FreeWX-Wi 1.01,2013-02-18 16:47:00,
2013-02-18 10:52:00,33.8,30.0,28.29,NW,306,4.0,7.6,86,0.00,,,-99.99,FreeWX-Wi 1.01,2013-02-18 16:52:00,
2013-02-18 11:03:00,33.8,30.4,28.29,NW,307,4.0,8.1,87,0.00,,,-99.99,FreeWX-Wi 1.01,2013-02-18 17:03:00,
2013-02-18 11:08:00,34.0,30.2,28.29,NW,309,4.0,8.1,86,0.00,,,-99.99,FreeWX-Wi 1.01,2013-02-18 17:08:00,
2013-02-18 11:13:00,34.0,30.6,28.29,NW,309,4.0,6.3,87,0.00,,,-99.99,FreeWX-Wi 1.01,2013-02-18 17:13:00,
2013-02-18 11:18:00,34.0,30.6,28.29,NW,308,4.0,7.6,87,0.00,,,-99.99,FreeWX-Wi 1.01,2013-02-18 17:18:00,
2013-02-18 11:23:00,33.8,30.6,28.29,NW,308,5.0,8.7,88,0.00,,,-99.99,FreeWX-Wi 1.01,2013-02-18 17:23:00,
2013-02-18 11:28:00,33.6,30.7,28.29,NW,308,5.0,10.5,89,0.00,,,-99.99,FreeWX-Wi 1.01,2013-02-18 17:28:00,
2013-02-18 11:33:00,32.4,29.8,28.29,NW,308,6.0,11.0,90,0.00,,,-99.99,FreeWX-Wi 1.01,2013-02-18 17:33:00,
2013-02-18 11:38:00,30.2,27.7,28.29,NW,307,6.0,11.0,90,0.00,,,-99.99,FreeWX-Wi 1.01,2013-02-18 17:38:00,
2013-02-18 11:44:00,29.8,28.0,28.29,NW,309,7.0,10.5,93,0.00,,,-99.99,FreeWX-Wi 1.01,2013-02-18 17:44:00,
2013-02-18 11:49:00,29.7,28.2,28.29,NW,310,7.0,10.1,94,0.00,,,-99.99,FreeWX-Wi 1.01,2013-02-18 17:49:00,
2013-02-18 11:54:00,29.3,27.0,28.29,NW,311,7.0,12.3,91,0.00,,,-99.99,FreeWX-Wi 1.01,2013-02-18 17:54:00,
2013-02-18 11:59:00,29.1,25.7,28.29,NW,312,8.0,12.3,87,0.00,,,-99.99,FreeWX-Wi 1.01,2013-02-18 17:59:00,
2013-02-18 12:04:00,28.9,24.1,28.29,NW,315,8.0,12.8,82,0.00,,,-99.99,FreeWX-Wi 1.01,2013-02-18 18:04:00,
2013-02-18 12:09:00,29.3,23.5,28.29,NW,315,8.0,11.9,79,0.00,,,-99.99,FreeWX-Wi 1.01,2013-02-18 18:09:00,
2013-02-18 12:14:00,29.5,23.7,28.29,NW,315,7.0,9.6,79,0.00,,,-99.99,FreeWX-Wi 1.01,2013-02-18 18:14:00,
2013-02-18 12:19:00,28.9,23.2,28.29,NW,315,7.0,11.0,79,0.00,,,-99.99,FreeWX-Wi 1.01,2013-02-18 18:19:00,
2013-02-18 12:24:00,28.8,23.4,28.29,NW,314,7.0,12.8,80,0.00,,,-99.99,FreeWX-Wi 1.01,2013-02-18 18:24:00,
2013-02-18 12:29:00,28.6,22.6,28.29,NW,314,7.0,10.1,78,0.00,,,-99.99,FreeWX-Wi 1.01,2013-02-18 18:29:00,
2013-02-18 12:34:00,28.4,20.5,28.29,NW,314,7.0,11.4,72,0.00,,,-99.99,FreeWX-Wi 1.01,2013-02-18 18:34:00,
2013-02-18 12:39:00,28.6,21.4,28.29,NW,314,7.0,10.5,74,0.00,,,-99.99,FreeWX-Wi 1.01,2013-02-18 18:39:00,
2013-02-18 12:44:00,28.4,21.2,28.29,NW,315,7.0,10.1,74,0.00,,,-99.99,FreeWX-Wi 1.01,2013-02-18 18:44:00,
2013-02-18 12:50:00,28.2,21.0,28.32,NW,314,8.0,12.3,74,0.00,,,-99.99,FreeWX-Wi 1.01,2013-02-18 18:50:00,
2013-02-18 12:55:00,28.2,20.7,28.32,NW,315,7.0,12.8,73,0.00,,,-99.99,FreeWX-Wi 1.01,2013-02-18 18:55:00,
2013-02-18 13:00:00,27.7,19.9,28.32,NW,312,8.0,13.2,72,0.00,,,-99.99,FreeWX-Wi 1.01,2013-02-18 19:00:00,
2013-02-18 13:05:00,27.3,18.9,28.32,NW,311,8.0,14.5,70,0.00,,,-99.99,FreeWX-Wi 1.01,2013-02-18 19:05:00,
2013-02-18 13:10:00,27.5,19.8,28.32,NW,308,8.0,12.3,72,0.00,,,-99.99,FreeWX-Wi 1.01,2013-02-18 19:10:00,
2013-02-18 13:15:00,27.3,18.9,28.32,NW,306,8.0,10.5,70,0.00,,,-99.99,FreeWX-Wi 1.01,2013-02-18 19:15:00,
2013-02-18 13:20:00,27.1,18.7,28.32,NW,305,8.0,12.8,70,0.00,,,-99.99,FreeWX-Wi 1.01,2013-02-18 19:20:00,
2013-02-18 13:25:00,27.0,18.1,28.32,NW,307,8.0,10.5,69,0.00,,,-99.99,FreeWX-Wi 1.01,2013-02-18 19:25:00,
2013-02-18 13:30:00,26.4,17.6,28.32,NW,307,8.0,15.4,69,0.00,,,-99.99,FreeWX-Wi 1.01,2013-02-18 19:30:00,
2013-02-18 13:35:00,26.1,16.9,28.32,NW,307,9.0,16.8,68,0.00,,,-99.99,FreeWX-Wi 1.01,2013-02-18 19:35:00,
2013-02-18 13:40:00,26.1,16.9,28.32,NW,309,9.0,13.2,68,0.00,,,-99.99,FreeWX-Wi 1.01,2013-02-18 19:40:00,
2013-02-18 13:45:00,26.4,16.7,28.32,NW,309,9.0,15.0,66,0.00,,,-99.99,FreeWX-Wi 1.01,2013-02-18 19:45:00,
2013-02-18 13:50:00,26.1,16.3,28.32,NW,308,9.0,10.5,66,0.00,,,-99.99,FreeWX-Wi 1.01,2013-02-18 19:50:00,
2013-02-18 13:56:00,25.7,16.3,28.32,NW,306,9.0,14.1,67,0.00,,,-99.99,FreeWX-Wi 1.01,2013-02-18 19:56:00,
2013-02-18 14:01:00,25.3,15.6,28.32,NW,304,9.0,14.5,66,0.00,,,-99.99,FreeWX-Wi 1.01,2013-02-18 20:01:00,
2013-02-18 14:06:00,25.0,16.0,28.32,WNW,302,9.0,15.0,68,0.00,,,-99.99,FreeWX-Wi 1.01,2013-02-18 20:06:00,
2013-02-18 14:11:00,24.6,14.9,28.32,WNW,301,9.0,15.4,66,0.00,,,-99.99,FreeWX-Wi 1.01,2013-02-18 20:11:00,
2013-02-18 14:16:00,24.3,13.8,28.32,WNW,301,10.0,13.6,64,0.00,,,-99.99,FreeWX-Wi 1.01,2013-02-18 20:16:00,
2013-02-18 14:21:00,23.9,13.8,28.32,WNW,301,11.0,15.4,65,0.00,,,-99.99,FreeWX-Wi 1.01,2013-02-18 20:21:00,
2013-02-18 14:32:00,23.5,13.1,28.35,WNW,303,11.0,14.5,64,0.00,,,-99.99,FreeWX-Wi 1.01,2013-02-18 20:32:00,
2013-02-18 14:37:00,23.5,13.5,28.35,NW,305,10.0,17.0,65,0.00,,,-99.99,FreeWX-Wi 1.01,2013-02-18 20:37:00,
2013-02-18 14:42:00,23.2,12.9,28.35,NW,304,11.0,15.4,64,0.00,,,-99.99,FreeWX-Wi 1.01,2013-02-18 20:42:00,
2013-02-18 14:47:00,23.0,13.1,28.35,NW,305,10.0,13.2,65,0.00,,,-99.99,FreeWX-Wi 1.01,2013-02-18 20:47:00,
2013-02-18 14:52:00,22.8,12.9,28.35,NW,306,10.0,13.2,65,0.00,,,-99.99,FreeWX-Wi 1.01,2013-02-18 20:52:00,
2013-02-18 14:57:00,22.6,12.0,28.35,NW,305,10.0,17.4,63,0.00,,,-99.99,FreeWX-Wi 1.01,2013-02-18 20:57:00,
2013-02-18 15:02:00,22.3,12.0,28.35,NW,305,10.0,15.0,64,0.00,,,-99.99,FreeWX-Wi 1.01,2013-02-18 21:02:00,
2013-02-18 15:07:00,21.9,11.3,28.35,NW,304,10.0,15.0,63,0.00,,,-99.99,FreeWX-Wi 1.01,2013-02-18 21:07:00,
2013-02-18 15:12:00,21.6,10.6,28.35,WNW,301,10.0,15.4,62,0.00,,,-99.99,FreeWX-Wi 1.01,2013-02-18 21:12:00,
2013-02-18 15:17:00,21.6,10.9,28.35,WNW,302,10.0,17.0,63,0.00,,,-99.99,FreeWX-Wi 1.01,2013-02-18 21:17:00,
2013-02-18 15:22:00,21.6,10.2,28.35,WNW,303,10.0,17.0,61,0.00,,,-99.99,FreeWX-Wi 1.01,2013-02-18 21:22:00,
2013-02-18 15:28:00,21.9,11.3,28.35,NW,304,10.0,13.2,63,0.00,,,-99.99,FreeWX-Wi 1.01,2013-02-18 21:28:00,
2013-02-18 15:33:00,21.7,10.8,28.35,WNW,303,10.0,15.4,62,0.00,,,-99.99,FreeWX-Wi 1.01,2013-02-18 21:33:00,
2013-02-18 15:38:00,20.7,9.0,28.35,NW,304,10.0,14.1,60,0.00,,,-99.99,FreeWX-Wi 1.01,2013-02-18 21:38:00,
2013-02-18 15:43:00,21.0,10.0,28.35,WNW,303,10.0,16.8,62,0.00,,,-99.99,FreeWX-Wi 1.01,2013-02-18 21:43:00,
2013-02-18 15:48:00,21.0,10.0,28.35,WNW,302,10.0,17.9,62,0.00,,,-99.99,FreeWX-Wi 1.01,2013-02-18 21:48:00,
2013-02-18 15:53:00,21.2,11.7,28.35,WNW,301,10.0,14.5,66,0.00,,,-99.99,FreeWX-Wi 1.01,2013-02-18 21:53:00,
2013-02-18 15:58:00,21.2,10.6,28.35,WNW,298,10.0,12.8,63,0.00,,,-99.99,FreeWX-Wi 1.01,2013-02-18 21:58:00,
2013-02-18 16:03:00,20.3,8.6,28.38,WNW,298,10.0,14.1,60,0.00,,,-99.99,FreeWX-Wi 1.01,2013-02-18 22:03:00,
2013-02-18 16:08:00,20.3,8.6,28.38,WNW,298,10.0,15.4,60,0.00,,,-99.99,FreeWX-Wi 1.01,2013-02-18 22:08:00,
2013-02-18 16:13:00,19.9,8.6,28.38,WNW,299,10.0,15.4,61,0.00,,,-99.99,FreeWX-Wi 1.01,2013-02-18 22:13:00,
2013-02-18 16:18:00,19.6,8.1,28.38,WNW,298,10.0,15.4,60,0.00,,,-99.99,FreeWX-Wi 1.01,2013-02-18 22:18:00,
2013-02-18 16:23:00,19.6,8.1,28.38,WNW,298,10.0,15.4,60,0.00,,,-99.99,FreeWX-Wi 1.01,2013-02-18 22:23:00,
2013-02-18 16:29:00,19.0,7.5,28.38,WNW,301,10.0,17.4,60,0.00,,,-99.99,FreeWX-Wi 1.01,2013-02-18 22:29:00,
2013-02-18 16:34:00,18.7,6.8,28.38,WNW,300,11.0,15.4,59,0.00,,,-99.99,FreeWX-Wi 1.01,2013-02-18 22:34:00,
2013-02-18 16:39:00,18.3,6.1,28.38,WNW,300,11.0,17.4,58,0.00,,,-99.99,FreeWX-Wi 1.01,2013-02-18 22:39:00,
2013-02-18 16:44:00,18.9,7.7,28.38,WNW,303,11.0,13.2,61,0.00,,,-99.99,FreeWX-Wi 1.01,2013-02-18 22:44:00,
2013-02-18 16:49:00,18.7,7.5,28.38,WNW,302,11.0,17.4,61,0.00,,,-99.99,FreeWX-Wi 1.01,2013-02-18 22:49:00,
2013-02-18 16:54:00,18.1,6.6,28.38,WNW,301,11.0,12.3,60,0.00,,,-99.99,FreeWX-Wi 1.01,2013-02-18 22:54:00,
2013-02-18 16:59:00,17.6,7.2,28.38,WNW,301,10.0,13.2,63,0.00,,,-99.99,FreeWX-Wi 1.01,2013-02-18 22:59:00,
2013-02-18 17:04:00,17.4,6.3,28.38,WNW,303,10.0,16.8,61,0.00,,,-99.99,FreeWX-Wi 1.01,2013-02-18 23:04:00,
2013-02-18 17:09:00,17.1,5.2,28.38,WNW,303,10.0,15.4,59,0.00,,,-99.99,FreeWX-Wi 1.01,2013-02-18 23:09:00,
2013-02-18 17:14:00,17.2,5.4,28.38,WNW,302,10.0,15.4,59,0.00,,,-99.99,FreeWX-Wi 1.01,2013-02-18 23:14:00,
2013-02-18 17:19:00,16.7,4.5,28.38,NW,304,10.0,16.8,58,0.00,,,-99.99,FreeWX-Wi 1.01,2013-02-18 23:19:00,
2013-02-18 17:24:00,16.3,4.6,28.38,NW,305,10.0,15.0,59,0.00,,,-99.99,FreeWX-Wi 1.01,2013-02-18 23:24:00,
2013-02-18 17:30:00,16.0,5.0,28.38,NW,307,10.0,12.8,61,0.00,,,-99.99,FreeWX-Wi 1.01,2013-02-18 23:30:00,
2013-02-18 17:35:00,15.3,6.6,28.38,NW,309,9.0,10.5,68,0.00,,,-99.99,FreeWX-Wi 1.01,2013-02-18 23:35:00,
2013-02-18 17:40:00,14.9,4.3,28.38,NW,311,9.0,12.8,62,0.00,,,-99.99,FreeWX-Wi 1.01,2013-02-18 23:40:00,
2013-02-18 17:45:00,14.7,3.7,28.38,NW,313,9.0,9.2,61,0.00,,,-99.99,FreeWX-Wi 1.01,2013-02-18 23:45:00,
2013-02-18 17:50:00,14.5,3.2,28.41,NW,313,8.0,13.2,60,0.00,,,-99.99,FreeWX-Wi 1.01,2013-02-18 23:50:00,
2013-02-18 17:55:00,14.4,3.7,28.41,NW,314,8.0,15.0,62,0.00,,,-99.99,FreeWX-Wi 1.01,2013-02-18 23:55:00,
2013-02-18 18:00:00,14.4,3.7,28.41,NW,315,8.0,11.0,62,0.00,,,-99.99,FreeWX-Wi 1.01,2013-02-19 00:00:00,
2013-02-18 18:05:00,14.2,3.2,28.41,NW,313,8.0,12.3,61,0.00,,,-99.99,FreeWX-Wi 1.01,2013-02-19 00:05:00,
2013-02-18 18:10:00,14.0,5.2,28.41,NW,312,8.0,10.1,67,0.00,,,-99.99,FreeWX-Wi 1.01,2013-02-19 00:10:00,
2013-02-18 18:15:00,12.9,4.1,28.41,NW,313,8.0,13.2,67,0.00,,,-99.99,FreeWX-Wi 1.01,2013-02-19 00:15:00,
2013-02-18 18:21:00,13.3,4.5,28.41,NW,313,8.0,10.1,67,0.00,,,-99.99,FreeWX-Wi 1.01,2013-02-19 00:21:00,
2013-02-18 18:26:00,13.3,4.5,28.41,NW,313,8.0,12.3,67,0.00,,,-99.99,FreeWX-Wi 1.01,2013-02-19 00:26:00,
2013-02-18 18:31:00,12.9,4.1,28.44,NW,314,8.0,12.3,67,0.00,,,-99.99,FreeWX-Wi 1.01,2013-02-19 00:31:00,
2013-02-18 18:36:00,12.2,3.4,28.44,NW,315,8.0,12.3,67,0.00,,,-99.99,FreeWX-Wi 1.01,2013-02-19 00:36:00,
2013-02-18 18:46:00,11.8,3.0,28.44,NW,314,8.0,15.4,67,0.00,,,-99.99,FreeWX-Wi 1.01,2013-02-19 00:46:00,
2013-02-18 18:51:00,11.7,2.8,28.44,NW,315,9.0,11.0,67,0.00,,,-99.99,FreeWX-Wi 1.01,2013-02-19 00:51:00,
2013-02-18 18:56:00,11.8,3.0,28.44,NW,314,9.0,12.8,67,0.00,,,-99.99,FreeWX-Wi 1.01,2013-02-19 00:56:00,
2013-02-18 19:02:00,11.7,2.8,28.44,NW,314,9.0,13.2,67,0.00,,,-99.99,FreeWX-Wi 1.01,2013-02-19 01:02:00,
2013-02-18 19:07:00,11.5,2.7,28.44,NW,313,9.0,12.8,67,0.00,,,-99.99,FreeWX-Wi 1.01,2013-02-19 01:07:00,
2013-02-18 19:12:00,10.9,2.1,28.44,NW,313,9.0,17.4,67,0.00,,,-99.99,FreeWX-Wi 1.01,2013-02-19 01:12:00,
2013-02-18 19:17:00,10.9,2.1,28.44,NW,313,10.0,18.3,67,0.00,,,-99.99,FreeWX-Wi 1.01,2013-02-19 01:17:00,
2013-02-18 19:22:00,10.4,1.6,28.44,NW,313,10.0,14.1,67,0.00,,,-99.99,FreeWX-Wi 1.01,2013-02-19 01:22:00,
2013-02-18 19:27:00,10.2,1.4,28.44,NW,315,10.0,16.8,67,0.00,,,-99.99,FreeWX-Wi 1.01,2013-02-19 01:27:00,
2013-02-18 19:32:00,10.0,1.2,28.44,NW,315,10.0,16.3,67,0.00,,,-99.99,FreeWX-Wi 1.01,2013-02-19 01:32:00,
2013-02-18 19:37:00,10.0,1.2,28.44,NW,315,10.0,12.3,67,0.00,,,-99.99,FreeWX-Wi 1.01,2013-02-19 01:37:00,
2013-02-18 19:42:00,10.0,1.2,28.44,NW,316,10.0,13.2,67,0.00,,,-99.99,FreeWX-Wi 1.01,2013-02-19 01:42:00,
2013-02-18 19:47:00,9.7,1.0,28.44,NW,317,10.0,15.0,67,0.00,,,-99.99,FreeWX-Wi 1.01,2013-02-19 01:47:00,
2013-02-18 19:58:00,9.1,0.5,28.44,NW,315,10.0,15.0,67,0.00,,,-99.99,FreeWX-Wi 1.01,2013-02-19 01:58:00,
2013-02-18 20:03:00,9.0,0.3,28.44,NW,315,9.0,15.0,67,0.00,,,-99.99,FreeWX-Wi 1.01,2013-02-19 02:03:00,
2013-02-18 20:08:00,8.8,0.1,28.44,NW,314,10.0,17.0,67,0.00,,,-99.99,FreeWX-Wi 1.01,2013-02-19 02:08:00,
2013-02-18 20:13:00,8.2,-0.4,28.44,NW,312,10.0,19.2,67,0.00,,,-99.99,FreeWX-Wi 1.01,2013-02-19 02:13:00,
2013-02-18 20:18:00,7.9,-0.8,28.44,NW,314,10.0,14.5,67,0.00,,,-99.99,FreeWX-Wi 1.01,2013-02-19 02:18:00,
2013-02-18 20:23:00,8.2,-0.4,28.44,NW,316,10.0,13.2,67,0.00,,,-99.99,FreeWX-Wi 1.01,2013-02-19 02:23:00,
2013-02-18 20:28:00,7.9,-0.8,28.44,NW,315,10.0,14.5,67,0.00,,,-99.99,FreeWX-Wi 1.01,2013-02-19 02:28:00,
2013-02-18 20:33:00,8.1,-0.6,28.44,NW,314,10.0,13.2,67,0.00,,,-99.99,FreeWX-Wi 1.01,2013-02-19 02:33:00,
2013-02-18 20:38:00,7.9,-0.8,28.44,NW,316,10.0,15.4,67,0.00,,,-99.99,FreeWX-Wi 1.01,2013-02-19 02:38:00,
2013-02-18 20:43:00,7.9,-0.8,28.44,NW,316,10.0,15.0,67,0.00,,,-99.99,FreeWX-Wi 1.01,2013-02-19 02:43:00,
2013-02-18 20:49:00,7.9,-0.8,28.44,NW,314,10.0,13.2,67,0.00,,,-99.99,FreeWX-Wi 1.01,2013-02-19 02:49:00,
2013-02-18 20:54:00,7.5,-1.1,28.44,NW,313,10.0,17.0,67,0.00,,,-99.99,FreeWX-Wi 1.01,2013-02-19 02:54:00,
2013-02-18 20:59:00,7.5,-1.1,28.44,NW,312,10.0,14.5,67,0.00,,,-99.99,FreeWX-Wi 1.01,2013-02-19 02:59:00,
2013-02-18 21:04:00,7.0,-1.7,28.44,NW,313,10.0,12.8,67,0.00,,,-99.99,FreeWX-Wi 1.01,2013-02-19 03:04:00,
2013-02-18 21:09:00,7.3,-1.3,28.44,NW,315,10.0,11.0,67,0.00,,,-99.99,FreeWX-Wi 1.01,2013-02-19 03:09:00,
2013-02-18 21:14:00,7.2,-1.5,28.44,NW,315,9.0,12.8,67,0.00,,,-99.99,FreeWX-Wi 1.01,2013-02-19 03:14:00,
2013-02-18 21:19:00,7.3,-1.3,28.44,NW,315,9.0,15.4,67,0.00,,,-99.99,FreeWX-Wi 1.01,2013-02-19 03:19:00,
2013-02-18 21:24:00,7.2,-1.5,28.44,NW,317,9.0,12.3,67,0.00,,,-99.99,FreeWX-Wi 1.01,2013-02-19 03:24:00,
2013-02-18 21:29:00,7.0,-1.7,28.44,NW,317,9.0,12.3,67,0.00,,,-99.99,FreeWX-Wi 1.01,2013-02-19 03:29:00,
2013-02-18 21:34:00,7.0,-1.7,28.44,NW,314,9.0,12.8,67,0.00,,,-99.99,FreeWX-Wi 1.01,2013-02-19 03:34:00,
2013-02-18 21:39:00,6.4,-2.2,28.44,NW,312,9.0,11.9,67,0.00,,,-99.99,FreeWX-Wi 1.01,2013-02-19 03:39:00,
2013-02-18 21:44:00,6.6,-2.0,28.44,NW,312,9.0,10.5,67,0.00,,,-99.99,FreeWX-Wi 1.01,2013-02-19 03:44:00,
2013-02-18 21:50:00,6.1,-2.6,28.44,NW,312,9.0,15.0,67,0.00,,,-99.99,FreeWX-Wi 1.01,2013-02-19 03:50:00,
2013-02-18 21:55:00,6.1,-2.6,28.44,NW,309,9.0,13.2,67,0.00,,,-99.99,FreeWX-Wi 1.01,2013-02-19 03:55:00,
2013-02-18 22:00:00,5.9,-2.7,28.44,NW,310,9.0,11.0,67,0.00,,,-99.99,FreeWX-Wi 1.01,2013-02-19 04:00:00,
2013-02-18 22:05:00,5.9,-2.7,28.44,NW,312,9.0,12.8,67,0.00,,,-99.99,FreeWX-Wi 1.01,2013-02-19 04:05:00,
2013-02-18 22:10:00,5.9,-2.7,28.44,NW,312,9.0,15.4,67,0.00,,,-99.99,FreeWX-Wi 1.01,2013-02-19 04:10:00,
2013-02-18 22:15:00,5.9,-2.7,28.44,NW,313,9.0,13.6,67,0.00,,,-99.99,FreeWX-Wi 1.01,2013-02-19 04:15:00,
2013-02-18 22:20:00,5.5,-2.9,28.44,NW,313,9.0,15.9,67,0.00,,,-99.99,FreeWX-Wi 1.01,2013-02-19 04:20:00,
2013-02-18 22:25:00,5.7,-2.9,28.44,NW,314,9.0,12.8,67,0.00,,,-99.99,FreeWX-Wi 1.01,2013-02-19 04:25:00,
2013-02-18 22:30:00,5.5,-2.9,28.44,NW,314,9.0,16.8,67,0.00,,,-99.99,FreeWX-Wi 1.01,2013-02-19 04:30:00,
2013-02-18 22:35:00,5.5,-2.9,28.44,NW,312,9.0,12.3,67,0.00,,,-99.99,FreeWX-Wi 1.01,2013-02-19 04:35:00,
2013-02-18 22:46:00,5.5,-2.9,28.47,NW,310,10.0,13.2,67,0.00,,,-99.99,FreeWX-Wi 1.01,2013-02-19 04:46:00,
2013-02-18 22:51:00,5.2,-3.3,28.47,NW,310,9.0,14.5,67,0.00,,,-99.99,FreeWX-Wi 1.01,2013-02-19 04:51:00,
2013-02-18 22:56:00,5.4,-3.1,28.47,NW,310,9.0,12.8,67,0.00,,,-99.99,FreeWX-Wi 1.01,2013-02-19 04:56:00,
2013-02-18 23:02:00,5.4,-3.1,28.47,NW,311,9.0,12.8,67,0.00,,,-99.99,FreeWX-Wi 1.01,2013-02-19 05:02:00,
2013-02-18 23:07:00,5.4,-3.1,28.47,NW,312,9.0,15.4,67,0.00,,,-99.99,FreeWX-Wi 1.01,2013-02-19 05:07:00,
2013-02-18 23:12:00,5.4,-3.1,28.47,NW,312,9.0,13.6,67,0.00,,,-99.99,FreeWX-Wi 1.01,2013-02-19 05:12:00,
2013-02-18 23:17:00,5.0,-3.5,28.47,NW,312,9.0,14.5,67,0.00,,,-99.99,FreeWX-Wi 1.01,2013-02-19 05:17:00,
2013-02-18 23:22:00,4.8,-3.6,28.47,NW,311,9.0,13.2,67,0.00,,,-99.99,FreeWX-Wi 1.01,2013-02-19 05:22:00,
2013-02-18 23:27:00,5.0,-3.5,28.47,NW,311,9.0,13.2,67,0.00,,,-99.99,FreeWX-Wi 1.01,2013-02-19 05:27:00,
2013-02-18 23:32:00,5.0,-3.5,28.47,NW,310,9.0,13.2,67,0.00,,,-99.99,FreeWX-Wi 1.01,2013-02-19 05:32:00,
2013-02-18 23:37:00,5.2,-3.3,28.47,NW,311,9.0,11.9,67,0.00,,,-99.99,FreeWX-Wi 1.01,2013-02-19 05:37:00,
2013-02-18 23:42:00,5.0,-3.5,28.47,NW,312,9.0,15.4,67,0.00,,,-99.99,FreeWX-Wi 1.01,2013-02-19 05:42:00,
2013-02-18 23:47:00,5.0,-3.5,28.47,NW,312,9.0,14.5,67,0.00,,,-99.99,FreeWX-Wi 1.01,2013-02-19 05:47:00,
2013-02-18 23:53:00,4.5,-4.0,28.47,NW,314,9.0,15.4,67,0.00,,,-99.99,FreeWX-Wi 1.01,2013-02-19 05:53:00,
2013-02-18 23:58:00,4.1,-4.4,28.47,NW,312,9.0,15.0,67,0.00,,,-99.99,FreeWX-Wi 1.01,2013-02-19 05:58:00,